Weather History for Deming, NM

Change the Weather History Date:

Thursday, June 27, 2013

  Actual Average Record
Temperature  
Mean Temperature 84 °F 80 °F  
Max Temperature 107 °F 97 °F 107 °F (1951)
Min Temperature 61 °F 63 °F 51 °F (1965)
Cooling Degree Days 20    
Growing Degree Days 36 (Base 50)    
Moisture  
Dew Point 19 °F    
Average Humidity 10    
Maximum Humidity 15    
Minimum Humidity 5    
Precipitation  
Precipitation 0.00 in 0.06 in 0.52 in (2004)
Month to date precipitation T 0.53  
Year to date precipitation 0.51 2.94  
Sea Level Pressure  
Sea Level Pressure 29.82 in    
Wind  
Wind Speed 9 mph (WSW)    
Max Wind Speed 21 mph    
Max Gust Speed 29 mph    
Visibility 10 miles    
Events      
T = Trace of Precipitation, MM = Missing Value Source: NWS Daily Summary

Daily Weather History Graph

Daily Weather History Graph

Search for Another Location

Airport:

Trip Planner

Search our weather history database for the weather conditions in past years. The results will help you decide how hot, cold, wet, or windy it might be!

Date:

Astronomy

Jun. 27, 2013 Rise Set
Actual Time 6:06 AM MDT 8:21 PM MDT
Civil Twilight 5:38 AM MDT 8:49 PM MDT
Nautical Twilight 5:03 AM MDT 9:24 PM MDT
Astronomical Twilight 4:25 AM MDT 10:02 PM MDT
Moon 11:40 PM MDT (6/27) 10:53 AM MDT (6/27)
Length of Visible Light 15h 11m
Length of Day
14h 15m
Waning Gibbous, 76% of the Moon is Illuminated
Jun 27
Waning Gibbous
Jun 29
Last Quarter
Jul 8
New
Jul 15
First Quarter
Jul 22
Full

Hourly Weather History & Observations

Time (MDT) Temp. Dew Point Humidity Pressure Visibility Wind Dir Wind Speed Gust Speed Precip Events Conditions
12:53 AM 73.9 °F 8.1 °F 8% 29.83 in 10.0 mi West 6.9 mph - N/A   Clear
1:53 AM 70.0 °F 8.1 °F 9% 29.83 in 10.0 mi SW 10.4 mph - N/A   Clear
2:53 AM 68.0 °F 10.0 °F 11% 29.83 in 10.0 mi SW 9.2 mph - N/A   Clear
3:53 AM 66.9 °F 10.9 °F 11% 29.83 in 10.0 mi SW 8.1 mph - N/A   Clear
4:53 AM 68.0 °F 12.0 °F 11% 29.83 in 10.0 mi WSW 11.5 mph - N/A   Clear
5:53 AM 66.0 °F 12.9 °F 13% 29.85 in 10.0 mi SW 5.8 mph - N/A   Clear
6:53 AM 71.1 °F 17.1 °F 13% 29.86 in 10.0 mi West 9.2 mph - N/A   Clear
7:53 AM 72.0 °F 21.9 °F 15% 29.89 in 10.0 mi West 12.7 mph - N/A   Clear
8:53 AM 78.1 °F 24.1 °F 14% 29.91 in 10.0 mi WSW 10.4 mph - N/A   Clear
9:53 AM 86.0 °F 23.0 °F 10% 29.89 in 10.0 mi WSW 10.4 mph - N/A   Clear
10:53 AM 93.9 °F 21.9 °F 7% 29.88 in 10.0 mi Variable 5.8 mph - N/A   Clear
11:53 AM 98.1 °F 21.9 °F 7% 29.86 in 10.0 mi Variable 4.6 mph - N/A   Clear
12:53 PM 99.0 °F 21.9 °F 6% 29.83 in - Calm Calm - N/A   Clear
1:53 PM 104.0 °F 21.9 °F 5% 29.81 in - South 6.9 mph - N/A   Clear
2:53 PM 104.0 °F 19.9 °F 5% 29.79 in - Calm Calm - N/A   Clear
3:53 PM 105.1 °F 19.0 °F 5% 29.77 in 5.0 mi WSW 10.4 mph - N/A   Haze
4:53 PM 105.1 °F 21.9 °F 5% 29.75 in 10.0 mi West 16.1 mph 26.5 mph N/A   Clear
5:53 PM 104.0 °F 21.9 °F 5% 29.74 in 10.0 mi West 13.8 mph - N/A   Clear
6:53 PM 100.9 °F 21.9 °F 6% 29.75 in 10.0 mi West 12.7 mph - N/A   Clear
7:53 PM 99.0 °F 23.0 °F 7% 29.75 in 10.0 mi West 11.5 mph - N/A   Clear
8:53 PM 95.0 °F 24.1 °F 8% 29.75 in 10.0 mi West 12.7 mph - N/A   Clear
9:53 PM 88.0 °F 23.0 °F 9% 29.77 in 10.0 mi West 4.6 mph - N/A   Clear
10:53 PM 81.0 °F 23.0 °F 12% 29.78 in 10.0 mi West 6.9 mph - N/A   Clear
11:53 PM 81.0 °F 21.9 °F 11% 29.78 in 10.0 mi SSW 8.1 mph - N/A   Clear